Regional Weather Roundup
Issued by NWS San Angelo, TX

Home | Current Version | Previous Version | Text Only | Print | Product List | Glossary On
Versions: 1 2 3 4 5 6 7 8 9 10 11 12 13 14 15 16 17 18 19 20 21 22 23 24 25 26 27 28 29 30 31 32 33 34 35 36 37 38 39 40 41 42 43 44 45 46 47 48 49 50
000
ASUS44 KSJT 282311
RWRSJT
WEST CENTRAL TEXAS REGIONAL WEATHER ROUNDUP
NATIONAL WEATHER SERVICE SAN ANGELO TX
600 PM CDT WED SEP 28 2016

NOTE: "FAIR" INDICATES FEW OR NO CLOUDS BELOW 12,000 FEET WITH NO
SIGNIFICANT WEATHER AND/OR OBSTRUCTIONS TO VISIBILITY.

TXZ049-054-064>066-071>073-076>078-098-099-113-114-127-128-139-140-
154-155-168>170-290000
...LOCATIONS ACROSS WEST CENTRAL TEXAS...

CITY           SKY/WX    TMP DP  RH WIND       PRES   REMARKS
SAN ANGELO     SUNNY     85  49  28 NE6       30.09F
ABILENE        SUNNY     84  45  25 E3        30.11R
DYESS AFB      SUNNY     84  51  31 S1        30.09S
JUNCTION       SUNNY     86  57  37 W5        30.08S
SWEETWATER     SUNNY     84  44  24 E3        30.15R
BROWNWOOD      LGT RAIN  84  45  24 SW3       30.08S
COLEMAN        CLEAR     85  47  26 CALM      30.09S
SONORA         SUNNY     84  55  37 CALM      30.14S
OZONA          FAIR      84  48  28 CALM      30.13S
BRADY          NOT AVBL
$$

TEXAS PANHANDLE/OKLAHOMA PANHANDLE

CITY           SKY/WX    TMP DP  RH WIND       PRES   REMARKS
AMARILLO       SUNNY     84  37  18 E7        30.20R
BORGER         SUNNY     88  34  14 E6        30.17S
CANADIAN       SUNNY     86  48  26 SE9       30.14R
DALHART        SUNNY     86  29  12 E10       30.23R
DUMAS          CLEAR     86  31  14 E8        30.20S
GUYMON         NOT AVBL
HEREFORD       CLEAR     85  36  17 E8        30.21R
PAMPA          CLEAR     86  37  17 E7        30.19S
PERRYTON       SUNNY     87  41  19 E12       30.16R
$$

SOUTHERN PANHANDLE/SOUTH PLAINS/ROLLING PLAINS

CITY           SKY/WX    TMP DP  RH WIND       PRES   REMARKS
LUBBOCK        PTSUNNY   86  41  20 NE7       30.16R
SNYDER           N/A     84  44  24 CALM      30.13S
CHILDRESS      SUNNY     89  41  18 E5        30.11R
SEMINOLE       CLEAR     81  42  25 CALM      30.19S
$$

PERMIAN BASIN

CITY           SKY/WX    TMP DP  RH WIND       PRES   REMARKS
MIDLAND        SUNNY     87  43  21 CALM      30.14S
ODESSA         SUNNY     85  45  24 NE5       30.16S
WINK           SUNNY     84  54  35 MISG      30.12F
$$

FAR WEST/SOUTHWEST MOUNTAINS/TRANS PECOS

CITY           SKY/WX    TMP DP  RH WIND       PRES   REMARKS
ALPINE         PTCLDY    77  60  56 NE7       30.28S
DRYDEN         NOT AVBL
EL PASO        MOSUNNY   84  51  31 VRB5      30.14F
FORT STOCKTON  SUNNY     82  59  45 NE6       30.15S
GUADALUPE PASS SUNNY     72  51  47 E22       30.28F
MARFA          CLOUDY   N/A N/A N/A E9        30.25R
PECOS          CLEAR     82  58  43 CALM      30.12S
$$

DALLAS/FORT WORTH METROPLEX

CITY           SKY/WX    TMP DP  RH WIND       PRES   REMARKS
DFW AIRPORT    MOSUNNY   89  49  25 W7        30.02R
FTW MEACHAM    SUNNY     89  52  28 NW3       30.02S
DAL-EXECUTIVE  SUNNY     87  52  29 CALM      30.02S
GRAND PRAIRIE  SUNNY     88  46  23 N5        30.04R
ADDISON        SUNNY     88  50  27 SW3       30.03S
MESQUITE       CLEAR     88  46  23 SW3       30.02S
LANCASTER      CLEAR     89  47  24 W5        30.03R
$$

NORTH CENTRAL TEXAS

CITY           SKY/WX    TMP DP  RH WIND       PRES   REMARKS
SHRMAN/DENISON CLEAR     89  55  31 W8        30.02S
GAINESVILLE      N/A     87  55  33 W5        30.05R
BRIDGEPORT     CLEAR     87  56  34 CALM      30.06S
DENTON         SUNNY     87  55  33 W6        30.02R
WAXAHACHIE     CLEAR     86  51  29 CALM      30.04S
GRANBURY       CLEAR     88  48  25 CALM      30.05S
$$

WESTERN NORTH TEXAS

CITY           SKY/WX    TMP DP  RH WIND       PRES   REMARKS
WICHITA FALLS  SUNNY     90  53  28 N5        30.03S
VERNON         CLEAR     92  36  14 NE6       30.07R
BRECKENRIDGE     N/A     86  46  24 W3        30.07S
COMANCHE       SUNNY     84  48  28 N5        30.08S
$$

CENTRAL AND SOUTH CENTRAL TEXAS

CITY           SKY/WX    TMP DP  RH WIND       PRES   REMARKS
AUSTIN/BERGSTM MOSUNNY   88  54  31 N7        30.02S
WACO           SUNNY     87  49  26 S3        30.03S
HILLSBORO      CLEAR     84  51  31 CALM      30.04R
TEMPLE         SUNNY     86  55  34 N5        30.04S
KILLEEN-GRAY   SUNNY     85  47  26 NW3       30.04S
FORT HOOD      SUNNY     85  49  28 VRB5      30.03S
GEORGETOWN     SUNNY     88  50  27 NW3       30.04S
LAGO VISTA     FAIR      86  49  27 W7        30.07S
SAN MARCOS     SUNNY     84  63  48 CALM      30.05S
NEW BRAUNFELS  SUNNY     89  63  41 N6        30.02S
RANDOLPH AFB   SUNNY     86  65  48 E3        30.03S
SAN ANTONIO    MOSUNNY   88  62  41 VRB3      30.03F
STINSON        MOSUNNY   87  65  47 S7        30.01S
PLEASANTON     NOT AVBL
LA GRANGE      SUNNY     86  64  47 CALM      30.01S
GIDDINGS       CLEAR     85  57  38 CALM      30.07S
$$

EAST TEXAS

CITY           SKY/WX    TMP DP  RH WIND       PRES   REMARKS
PARIS          SUNNY     88  54  31 W12       29.99R
CLARKSVILLE    NOT AVBL
TYLER          SUNNY     85  51  31 SW8       30.02R
LONGVIEW       SUNNY     83  55  38 SW6       30.00S
PALESTINE      CLEAR     83  50  31 W3        30.04S
NACOGDOCHES    SUNNY     82  54  36 NW5       30.01R
$$

TEXAS HILL COUNTRY AND EDWARDS PLATEAU

CITY           SKY/WX    TMP DP  RH WIND       PRES   REMARKS
LLANO          CLEAR     88  54  31 CALM      30.09R
HORSESHOE BAY  FAIR      86  50  28 CALM      30.06S
KERRVILLE      SUNNY     85  60  43 CALM      30.07S
FREDERICKSBRG  SUNNY     84  56  38 N7        30.08S
ROCKSPRINGS    CLEAR     81  61  50 CALM      30.13S
HONDO          CLOUDY    89  64  43 VRB5      30.04S
UVALDE         CLEAR     85  65  52 CALM      30.06S
DEL RIO        SUNNY     85  65  51 SE6       30.04S
$$

SOUTHEAST TEXAS

CITY           SKY/WX    TMP DP  RH WIND       PRES   REMARKS
COLLEGE STN    SUNNY     85  59  41 W3        30.03R
CALDWELL       NOT AVBL
CROCKETT       NOT AVBL
BRENHAM        SUNNY     87  57  35 NW5       30.03S
HUNTSVILLE     SUNNY     85  54  34 NW5       30.03R
CONROE         SUNNY     85  56  37 W5        30.01S
HOUSTON BUSH   MOSUNNY   87  60  40 VRB5      30.00S
HOUSTON HOBBY  MOSUNNY   88  61  40 N7        29.99S
PERLAND        SUNNY     90  62  39 CALM      30.01R
WHARTON        CLEAR     86  63  45 CALM      30.01S
$$

THE UPPER TEXAS COAST

CITY           SKY/WX    TMP DP  RH WIND       PRES   REMARKS
ORANGE         CLEAR     84  62  46 NW3       30.00S
PORT ARTHUR    SUNNY     85  67  54 W6        29.99R
GALVESTON      SUNNY     85  67  54 NE6       30.01R
ANGLETON       MOSUNNY   87  69  54 NW3       30.00S
BAY CITY       CLEAR     86  68  53 CALM      30.01R
$$

TEXAS COASTAL BEND, RIO GRANDE PLAINS DEEP SOUTH TEXAS

CITY           SKY/WX    TMP DP  RH WIND       PRES   REMARKS
VICTORIA       SUNNY     88  65  46 NE5       30.01S
BEEVILLE       FAIR      88  66  48 N3        30.01S
ROCKPORT       SUNNY     86  69  56 SE5       30.00S
PORT ARANSAS   CLEAR     87  70  57 E6        30.01R
PORT LAVACA    CLEAR     88  70  55 CALM      30.01R
CORPUS CHRISTI PTSUNNY   88  69  53 E8        30.00S
KINGSVILLE NAS PTSUNNY   90  70  51 E8        30.00S
COTULLA        MOSUNNY   89  65  44 NE5       30.03R
LAREDO         MOSUNNY   87  68  52 E6        30.03R
BROWNSVILLE    MOSUNNY   83  74  74 N9        29.99S
PORT ISABEL    CLOUDY    83  75  77 N14       29.99R
HEBBRONVILLE   CLEAR     86  65  48 N5        30.04R
MCALLEN        SUNNY     90  68  48 NE10      29.99F
WESLACO        MOSUNNY   86  70  58 E7        29.98S
FALFURRIAS     PTCLDY    88  66  47 NE6       30.00S
EDINBURG       CLOUDY    90  64  41 NE9       29.99F
$$



USA.gov is the U.S. government's official web portal to all federal, state and local government web resources and services.